"startDT [UTC]","vpos","CH4 [ppm]","stdev(CH4) [ppm]","CO2 [ppm]","stdev(CO2) [ppm]","H2O_reported [%]","stdev(H2O_reported)","CavityPressure [torr]","CavityTemp [C]","OutletValve","CH4_dry [ppm]","CO2_dry [ppm]","DasTemp [C]","EtalonTemp [C]","WarmBoxTemp [C]","MPVPosition","T_ECpre [C]","T_EC1 [C]","T_EC2 [C]","p_inlet [hPa]","p_in [hPa]","p_out [hPa]","T_inlet [C]","RH_inlet [%]","dwpt_inlet [C]","T_vent [C]","RH_vent [%]","dwpt_vent [C]","flow_vent [l min-1]","flow_inlet [l min-1]","dwpt_sample [C]","T_room [C]"
2016-05-25 00:00:00,0.0,1.90375,0.00034,405.008,0.037,0.4989,0.0027,140.001,45.000,31484.22902,1.91322,407.476,32.039,45.071,45.000,0.00,0.09,-272.77,-272.84,-3,534,-929,19.4,16.6,-6.6,19.2,17.2,-6.3,5.73,1.72,-11.1,24.8
2016-05-25 00:01:00,0.0,1.90416,0.00036,405.015,0.032,0.4961,0.0021,140.000,45.000,31482.22709,1.91359,407.466,32.023,45.071,45.000,0.00,0.09,-272.78,-272.82,-5,534,-929,19.4,16.5,-6.6,19.2,17.2,-6.3,5.73,2.05,-11.1,24.8
2016-05-25 00:02:00,0.0,1.90404,0.00043,405.053,0.025,0.4926,0.0025,140.001,45.000,31482.08776,1.91340,407.489,32.028,45.072,45.000,0.00,0.09,-272.77,-272.83,-5,535,-929,19.4,16.4,-6.7,19.2,17.0,-6.4,5.73,1.92,-11.1,24.8
2016-05-25 00:03:00,0.0,1.90389,0.00048,405.012,0.028,0.4974,0.0026,140.000,45.000,31483.37423,1.91338,407.471,32.030,45.072,45.000,0.00,0.09,-272.78,-272.84,-4,534,-929,19.4,16.6,-6.6,19.2,17.1,-6.4,5.73,1.80,-11.1,24.8
2016-05-25 00:04:00,0.0,1.90355,0.00037,405.005,0.033,0.5040,0.0020,140.001,45.000,31483.54358,1.91312,407.496,32.048,45.072,45.000,0.00,0.09,-272.77,-272.83,-5,534,-929,19.4,16.8,-6.4,19.2,17.3,-6.2,5.73,2.12,-11.1,24.8
2016-05-25 00:05:00,0.0,1.90371,0.00034,405.005,0.033,0.5034,0.0023,139.998,45.000,31482.22403,1.91329,407.495,32.063,45.072,45.000,0.00,0.09,-272.77,-272.83,-5,534,-929,19.4,16.8,-6.4,19.2,17.4,-6.1,5.73,1.75,-11.1,24.8
2016-05-25 00:06:00,0.0,1.90348,0.00029,405.017,0.033,0.5035,0.0030,139.999,45.000,31483.10417,1.91307,407.506,32.063,45.072,45.000,0.00,0.09,-272.79,-272.83,-4,534,-929,19.4,16.8,-6.4,19.2,17.4,-6.2,5.73,1.99,-11.1,24.8
2016-05-25 00:07:00,0.0,1.90381,0.00027,405.023,0.034,0.4964,0.0048,139.999,45.000,31481.96238,1.91325,407.478,32.063,45.072,45.000,0.00,0.09,-272.77,-272.84,-5,534,-929,19.4,16.6,-6.6,19.2,17.3,-6.2,5.73,1.98,-11.1,24.8
2016-05-25 00:08:00,0.0,1.90375,0.00043,405.061,0.036,0.4929,0.0023,139.999,45.000,31482.81896,1.91312,407.498,32.063,45.072,45.000,0.00,0.09,-272.77,-272.83,-5,534,-929,19.4,16.4,-6.7,19.2,17.0,-6.4,5.73,1.76,-11.1,24.8
2016-05-25 00:09:00,0.0,1.90391,0.00039,405.083,0.036,0.4858,0.0043,139.999,45.000,31483.95644,1.91316,407.485,32.063,45.072,45.000,0.00,0.09,-272.78,-272.84,-4,534,-929,19.4,16.1,-7.0,19.2,16.8,-6.6,5.73,2.12,-11.1,24.8
2016-05-25 00:10:00,0.0,1.90404,0.00038,405.119,0.032,0.4816,0.0019,139.998,45.000,31482.12334,1.91317,407.498,32.059,45.072,45.000,0.00,0.09,-272.78,-272.84,-5,534,-929,19.4,16.0,-7.1,19.2,16.6,-6.7,5.73,1.78,-11.1,24.8
2016-05-25 00:11:00,0.0,1.90420,0.00039,405.096,0.027,0.4879,0.0019,139.998,45.000,31480.42395,1.91346,407.507,32.062,45.072,45.000,0.00,0.09,-272.78,-272.83,-5,534,-929,19.4,16.2,-6.9,19.2,16.7,-6.6,5.73,1.95,-11.1,24.8
2016-05-25 00:12:00,0.0,1.90394,0.00042,405.081,0.034,0.4924,0.0022,140.001,45.000,31482.84939,1.91331,407.516,32.061,45.072,45.000,0.00,0.09,-272.78,-272.84,-4,534,-929,19.4,16.4,-6.8,19.2,16.9,-6.5,5.73,2.03,-11.1,24.8
2016-05-25 00:13:00,0.0,1.90399,0.00052,405.087,0.034,0.4868,0.0023,139.999,45.000,31482.09749,1.91326,407.492,32.066,45.072,45.000,0.00,0.09,-272.78,-272.84,-5,534,-929,19.4,16.2,-6.9,19.2,16.8,-6.6,5.73,1.74,-11.1,24.8
2016-05-25 00:14:00,0.0,1.90403,0.00049,405.102,0.026,0.4860,0.0027,139.999,45.000,31481.81276,1.91326,407.504,32.080,45.072,45.000,0.00,0.09,-272.77,-272.83,-5,535,-929,19.4,16.2,-6.9,19.3,16.7,-6.6,5.73,2.11,-11.1,24.8
2016-05-25 00:15:00,0.0,1.90391,0.00037,405.084,0.033,0.4934,0.0029,140.001,45.000,31484.91686,1.91330,407.524,32.087,45.072,45.000,0.00,0.09,-272.77,-272.82,-4,535,-929,19.4,16.4,-6.7,19.3,16.9,-6.5,5.73,1.81,-11.1,24.8
2016-05-25 00:16:00,0.0,1.90384,0.00038,405.093,0.025,0.4870,0.0016,140.004,45.000,31486.64873,1.91309,407.501,32.112,45.072,45.000,0.00,0.09,-272.78,-272.83,-5,534,-929,19.4,16.2,-6.9,19.3,16.8,-6.6,5.73,1.90,-11.1,24.8
2016-05-25 00:17:00,0.0,1.90383,0.00044,405.082,0.042,0.4913,0.0025,139.999,45.000,31486.60455,1.91317,407.510,32.108,45.072,45.000,0.00,0.09,-272.78,-272.84,-5,534,-929,19.5,16.3,-6.8,19.2,16.8,-6.5,5.73,2.06,-11.1,24.9
2016-05-25 00:18:00,0.0,1.90360,0.00049,405.074,0.040,0.4906,0.0029,139.998,45.000,31487.79231,1.91292,407.499,32.119,45.072,45.000,0.00,0.09,-272.77,-272.82,-4,534,-929,19.4,16.3,-6.8,19.3,16.9,-6.5,5.73,1.72,-11.1,24.8
2016-05-25 00:19:00,0.0,1.90394,0.00038,405.123,0.043,0.4830,0.0048,140.002,45.000,31488.17143,1.91313,407.511,32.112,45.072,45.000,0.00,0.09,-272.78,-272.83,-5,534,-929,19.5,16.0,-7.0,19.3,16.7,-6.6,5.73,2.09,-11.1,24.8
2016-05-25 00:20:00,0.0,1.90389,0.00036,405.081,0.029,0.4869,0.0018,140.000,45.000,31488.30409,1.91313,407.488,32.119,45.072,45.000,0.00,0.09,-272.77,-272.84,-5,535,-929,19.5,16.1,-7.0,19.3,16.7,-6.7,5.73,1.86,-11.1,24.8
2016-05-25 00:21:00,0.0,1.90416,0.00034,405.134,0.041,0.4819,0.0029,140.001,45.000,31487.02896,1.91333,407.515,32.124,45.072,45.000,0.00,0.09,-272.77,-272.83,-4,535,-929,19.5,15.9,-7.1,19.3,16.6,-6.7,5.73,1.87,-11.1,24.8
2016-05-25 00:22:00,0.0,1.90421,0.00040,405.166,0.025,0.4755,0.0030,139.999,45.000,31487.06315,1.91323,407.518,32.118,45.072,45.000,0.00,0.09,-272.77,-272.83,-5,534,-929,19.5,15.7,-7.3,19.3,16.4,-6.9,5.73,2.09,-11.1,24.8
2016-05-25 00:23:00,0.0,1.90454,0.00039,405.196,0.025,0.4733,0.0027,140.002,45.000,31486.35341,1.91355,407.534,32.110,45.072,45.000,0.00,0.09,-272.78,-272.84,-5,534,-929,19.5,15.6,-7.3,19.3,16.2,-7.0,5.73,1.72,-11.1,24.8
2016-05-25 00:24:00,0.0,1.90410,0.00044,405.179,0.039,0.4784,0.0029,139.998,45.000,31486.57004,1.91320,407.543,32.107,45.072,45.000,0.00,0.09,-272.78,-272.83,-4,534,-929,19.5,15.8,-7.2,19.3,16.3,-6.9,5.73,2.09,-11.1,24.9
2016-05-25 00:25:00,0.0,1.90393,0.00031,405.158,0.037,0.4878,0.0048,140.000,45.000,31488.28708,1.91320,407.569,32.081,45.072,45.000,0.00,0.09,-272.76,-272.83,-5,535,-929,19.5,16.1,-6.9,19.3,16.6,-6.7,5.73,1.87,-11.0,24.9
2016-05-25 00:26:00,0.0,1.90394,0.00036,405.128,0.039,0.4877,0.0025,139.997,45.000,31487.68061,1.91322,407.540,32.111,45.072,45.000,0.00,0.09,-272.78,-272.83,-5,535,-929,19.5,16.2,-6.9,19.3,16.7,-6.6,5.73,1.85,-11.1,24.9
2016-05-25 00:27:00,0.0,1.90410,0.00031,405.136,0.031,0.4826,0.0036,140.000,45.000,31488.42266,1.91326,407.522,32.123,45.072,45.000,0.00,0.09,-272.78,-272.84,-4,535,-929,19.5,16.0,-7.0,19.3,16.6,-6.7,5.73,2.09,-11.1,24.9
2016-05-25 00:28:00,0.0,1.90380,0.00047,405.121,0.036,0.4860,0.0068,139.998,45.000,31491.34669,1.91306,407.525,32.125,45.072,45.000,0.00,0.09,-272.77,-272.83,-5,534,-929,19.5,16.0,-7.0,19.3,16.7,-6.6,5.73,1.73,-11.1,24.9
2016-05-25 00:29:00,0.0,1.90383,0.00033,405.166,0.025,0.4757,0.0034,140.000,45.000,31491.93457,1.91284,407.518,32.128,45.072,45.000,0.00,0.09,-272.78,-272.82,-5,534,-929,19.5,15.7,-7.2,19.3,16.3,-6.9,5.73,2.07,-11.1,24.9
2016-05-25 00:30:00,0.0,1.90396,0.00034,405.140,0.036,0.4788,0.0020,140.001,45.000,31491.94442,1.91305,407.507,32.127,45.072,45.000,0.00,0.09,-272.78,-272.84,-4,535,-929,19.5,15.8,-7.1,19.3,16.4,-6.9,5.73,1.88,-11.1,24.9
2016-05-25 00:31:00,0.0,1.90383,0.00047,405.116,0.028,0.4855,0.0033,140.002,45.000,31492.77010,1.91306,407.514,32.125,45.072,45.000,0.00,0.09,-272.77,-272.82,-5,535,-929,19.5,16.1,-6.9,19.3,16.6,-6.7,5.73,1.84,-11.1,24.9
2016-05-25 00:32:00,0.0,1.90359,0.00039,405.078,0.042,0.4913,0.0030,139.999,45.000,31493.02303,1.91295,407.508,32.127,45.072,45.000,0.00,0.09,-272.77,-272.83,-5,535,-929,19.5,16.3,-6.8,19.3,16.8,-6.5,5.73,2.10,-11.1,24.9
2016-05-25 00:33:00,0.0,1.90388,0.00032,405.122,0.047,0.4810,0.0061,139.999,45.000,31492.12488,1.91301,407.499,32.125,45.072,45.000,0.00,0.09,-272.78,-272.84,-4,534,-929,19.5,15.9,-7.1,19.3,16.6,-6.7,5.73,1.72,-11.1,24.9
2016-05-25 00:34:00,0.0,1.90412,0.00042,405.135,0.036,0.4777,0.0016,139.999,45.000,31492.25974,1.91318,407.495,32.158,45.072,45.000,0.00,0.09,-272.78,-272.83,-5,534,-929,19.5,15.7,-7.2,19.3,16.4,-6.8,5.73,2.06,-11.1,24.9
2016-05-25 00:35:00,0.0,1.90413,0.00032,405.181,0.037,0.4672,0.0040,140.000,45.000,31492.89086,1.91304,407.490,32.181,45.072,45.000,0.00,0.09,-272.77,-272.84,-5,535,-929,19.5,15.4,-7.5,19.3,16.1,-7.1,5.73,1.89,-11.1,24.9
2016-05-25 00:36:00,0.0,1.90395,0.00042,405.162,0.044,0.4712,0.0039,140.001,45.000,31495.51290,1.91287,407.492,32.185,45.072,45.000,0.00,0.09,-272.77,-272.83,-4,535,-929,19.5,15.5,-7.4,19.3,16.0,-7.1,5.73,1.83,-11.1,25.0
2016-05-25 00:37:00,0.0,1.90408,0.00038,405.171,0.037,0.4705,0.0019,139.998,45.000,31494.01618,1.91303,407.494,32.188,45.071,45.000,0.00,0.09,-272.78,-272.84,-5,535,-929,19.5,15.5,-7.4,19.3,16.1,-7.1,5.73,2.10,-11.1,25.0
2016-05-25 00:38:00,0.0,1.90402,0.00038,405.187,0.033,0.4770,0.0021,140.000,45.000,31493.77377,1.91309,407.546,32.188,45.071,45.000,0.00,0.09,-272.78,-272.83,-5,535,-929,19.5,15.7,-7.2,19.3,16.2,-7.0,5.73,1.73,-11.0,25.0
2016-05-25 00:39:00,0.0,1.90411,0.00043,405.194,0.038,0.4752,0.0026,140.000,45.000,31495.16122,1.91312,407.541,32.191,45.071,45.000,0.00,0.09,-272.78,-272.83,-4,534,-929,19.5,15.6,-7.3,19.3,16.2,-7.0,5.73,2.06,-11.0,25.0
2016-05-25 00:40:00,0.0,1.90417,0.00040,405.170,0.034,0.4763,0.0018,140.000,45.000,31494.98792,1.91322,407.524,32.190,45.071,45.000,0.00,0.09,-272.78,-272.84,-5,534,-929,19.5,15.7,-7.2,19.3,16.2,-6.9,5.73,1.89,-11.1,25.0
2016-05-25 00:41:00,0.0,1.90407,0.00055,405.204,0.029,0.4789,0.0032,139.998,45.000,31494.25782,1.91321,407.571,32.194,45.072,45.000,0.00,0.09,-272.77,-272.82,-5,535,-929,19.5,15.8,-7.1,19.3,16.3,-6.9,5.73,1.83,-11.0,25.0
2016-05-25 00:42:00,0.0,1.90397,0.00040,405.189,0.035,0.4780,0.0024,139.995,45.000,31495.50597,1.91301,407.551,32.196,45.072,45.000,0.00,0.09,-272.77,-272.83,-4,534,-929,19.5,15.7,-7.2,19.3,16.4,-6.8,5.73,2.11,-11.0,24.9
2016-05-25 00:43:00,0.0,1.90414,0.00041,405.159,0.029,0.4784,0.0033,139.997,45.000,31497.00114,1.91322,407.523,32.202,45.072,45.000,0.00,0.09,-272.78,-272.84,-6,534,-929,19.5,15.8,-7.2,19.3,16.3,-6.9,5.73,1.72,-11.0,25.0
2016-05-25 00:44:00,0.0,1.90404,0.00038,405.173,0.032,0.4773,0.0035,140.002,45.000,31499.93750,1.91311,407.533,32.229,45.072,45.000,0.00,0.09,-272.78,-272.82,-5,535,-929,19.5,15.7,-7.2,19.3,16.3,-6.9,5.73,2.07,-11.0,24.9
2016-05-25 00:45:00,0.0,1.90408,0.00036,405.158,0.034,0.4766,0.0018,140.000,45.000,31499.49268,1.91315,407.513,32.248,45.072,45.000,0.00,0.09,-272.76,-272.83,-4,535,-929,19.5,15.7,-7.2,19.3,16.3,-6.9,5.73,1.88,-11.0,25.0
2016-05-25 00:46:00,0.0,1.90411,0.00034,405.168,0.031,0.4779,0.0027,140.001,45.000,31499.50956,1.91321,407.529,32.250,45.072,45.000,0.00,0.09,-272.77,-272.83,-6,535,-929,19.6,15.7,-7.2,19.3,16.3,-6.9,5.73,1.84,-11.0,25.0
2016-05-25 00:47:00,0.0,1.90425,0.00039,405.164,0.039,0.4763,0.0028,140.000,45.000,31499.85693,1.91330,407.519,32.250,45.071,45.000,0.00,0.09,-272.78,-272.84,-4,535,-929,19.6,15.6,-7.2,19.3,16.3,-6.9,5.73,2.09,-11.0,25.0
2016-05-25 00:48:00,0.0,1.90404,0.00038,405.152,0.029,0.4746,0.0032,139.997,45.000,31499.53230,1.91304,407.496,32.256,45.071,45.000,0.00,0.09,-272.76,-272.84,-4,534,-929,19.6,15.6,-7.2,19.4,16.2,-7.0,5.73,1.72,-11.0,25.0
2016-05-25 00:49:00,0.0,1.90406,0.00033,405.136,0.040,0.4759,0.0058,139.999,45.000,31501.25810,1.91310,407.489,32.251,45.072,45.000,0.00,0.09,-272.78,-272.83,-6,535,-929,19.6,15.7,-7.2,19.4,16.3,-6.9,5.73,2.08,-11.0,25.0
2016-05-25 00:50:00,0.0,1.90445,0.00035,405.197,0.040,0.4774,0.0031,140.000,45.000,31498.69007,1.91352,407.555,32.258,45.072,45.000,0.00,0.09,-272.78,-272.85,-4,535,-929,19.6,15.7,-7.2,19.4,16.2,-6.9,5.73,1.86,-11.0,25.0
2016-05-25 00:51:00,0.0,1.90451,0.00043,405.182,0.042,0.4732,0.0045,140.002,45.000,31499.50362,1.91349,407.522,32.279,45.072,45.000,0.00,0.09,-272.79,-272.83,-4,535,-929,19.6,15.5,-7.3,19.4,16.2,-6.9,5.73,1.86,-11.0,25.0
2016-05-25 00:52:00,0.0,1.90460,0.00030,405.226,0.031,0.4734,0.0018,140.000,45.000,31499.78872,1.91361,407.565,32.307,45.072,45.000,0.00,0.09,-272.77,-272.83,-6,535,-929,19.6,15.5,-7.3,19.4,16.1,-7.0,5.73,2.07,-11.0,25.1
2016-05-25 00:53:00,0.0,1.90476,0.00039,405.265,0.026,0.4706,0.0022,140.001,45.000,31500.70051,1.91371,407.590,32.313,45.071,45.000,0.00,0.09,-272.78,-272.83,-4,535,-929,19.6,15.4,-7.4,19.4,16.0,-7.1,5.73,1.72,-11.0,25.0
2016-05-25 00:54:00,0.0,1.90455,0.00041,405.253,0.029,0.4742,0.0025,139.999,45.000,31499.42292,1.91356,407.598,32.332,45.071,45.000,0.00,0.09,-272.79,-272.83,-5,535,-929,19.6,15.5,-7.3,19.4,16.1,-7.0,5.73,2.10,-11.0,25.0
2016-05-25 00:55:00,0.0,1.90450,0.00025,405.284,0.039,0.4702,0.0025,140.000,45.000,31500.71943,1.91344,407.608,32.345,45.071,45.000,0.00,0.09,-272.76,-272.83,-6,535,-930,19.6,15.4,-7.4,19.4,16.1,-7.0,5.73,1.82,-11.0,25.0
2016-05-25 00:56:00,0.0,1.90438,0.00031,405.256,0.051,0.4691,0.0027,139.999,45.000,31502.53044,1.91331,407.576,32.370,45.071,44.999,0.00,0.09,-272.79,-272.83,-4,535,-929,19.6,15.3,-7.5,19.4,15.9,-7.1,5.73,1.92,-11.0,25.0
2016-05-25 00:57:00,0.0,1.90436,0.00038,405.217,0.038,0.4723,0.0017,140.000,45.000,31503.98513,1.91331,407.549,32.374,45.071,45.000,0.00,0.09,-272.78,-272.83,-5,534,-930,19.6,15.4,-7.4,19.4,16.0,-7.1,5.73,2.03,-11.0,25.0
2016-05-25 00:58:00,0.0,1.90441,0.00030,405.272,0.034,0.4665,0.0027,140.001,45.000,31505.00411,1.91328,407.578,32.371,45.071,45.000,0.00,0.09,-272.77,-272.83,-6,535,-929,19.6,15.2,-7.5,19.4,15.9,-7.1,5.73,1.75,-11.0,25.0
2016-05-25 00:59:00,0.0,1.90425,0.00045,405.255,0.036,0.4628,0.0036,139.999,45.000,31506.03845,1.91304,407.543,32.371,45.072,45.000,0.00,0.09,-272.78,-272.83,-4,535,-930,19.7,15.1,-7.6,19.4,15.7,-7.2,5.73,2.12,-11.0,25.1
2016-05-25 01:00:00,0.0,1.90431,0.00029,405.260,0.038,0.4658,0.0043,140.000,45.000,31506.49028,1.91319,407.562,32.363,45.072,45.000,0.00,0.09,-272.78,-272.84,-6,534,-929,19.7,15.1,-7.6,19.5,15.7,-7.3,5.73,1.77,-11.0,25.1
2016-05-25 01:01:00,0.0,1.90429,0.00048,405.275,0.046,0.4660,0.0029,139.998,45.000,31504.26408,1.91311,407.576,32.369,45.072,45.000,0.00,0.09,-272.78,-272.83,-5,535,-930,19.7,15.1,-7.6,19.5,15.8,-7.2,5.73,1.98,-11.0,25.1
2016-05-25 01:02:00,0.0,1.90451,0.00036,405.270,0.032,0.4693,0.0039,140.000,45.000,31503.98813,1.91343,407.591,32.374,45.072,45.000,0.00,0.09,-272.76,-272.83,-4,535,-929,19.7,15.3,-7.4,19.5,15.8,-7.2,5.73,1.97,-11.0,25.1
2016-05-25 01:03:00,0.0,1.90457,0.00036,405.246,0.040,0.4710,0.0026,140.000,45.000,31505.82319,1.91349,407.575,32.371,45.072,45.000,0.00,0.09,-272.77,-272.83,-6,535,-930,19.7,15.3,-7.4,19.4,15.9,-7.1,5.73,1.78,-11.0,25.1
2016-05-25 01:04:00,0.0,1.90457,0.00030,405.234,0.035,0.4714,0.0039,140.002,45.000,31506.11848,1.91357,407.564,32.348,45.072,45.000,0.00,0.09,-272.78,-272.83,-5,535,-929,19.7,15.3,-7.4,19.5,15.9,-7.1,5.73,2.11,-11.0,25.1
2016-05-25 01:05:00,0.0,1.90456,0.00040,405.226,0.032,0.4702,0.0037,139.999,45.000,31506.09201,1.91350,407.548,32.322,45.072,45.001,0.00,0.09,-272.77,-272.84,-4,535,-930,19.7,15.3,-7.4,19.5,15.9,-7.1,5.73,1.73,-11.0,25.1
2016-05-25 01:06:00,0.0,1.90429,0.00045,405.183,0.048,0.4760,0.0040,139.997,45.000,31507.23350,1.91332,407.535,32.321,45.073,45.001,0.00,0.09,-272.78,-272.83,-6,535,-930,19.7,15.4,-7.3,19.5,16.1,-6.9,5.73,2.05,-11.0,25.1
2016-05-25 01:07:00,0.0,1.90466,0.00032,405.244,0.035,0.4635,0.0026,139.999,45.000,31508.88551,1.91346,407.535,32.337,45.073,45.001,0.00,0.09,-272.78,-272.84,-5,535,-930,19.7,15.0,-7.6,19.5,15.8,-7.2,5.73,1.91,-11.0,25.1
2016-05-25 01:08:00,0.0,1.90449,0.00040,405.214,0.026,0.4652,0.0030,139.999,45.000,31510.30926,1.91333,407.514,32.354,45.073,45.001,0.00,0.09,-272.78,-272.82,-5,535,-930,19.7,15.1,-7.6,19.5,15.7,-7.3,5.73,1.83,-11.0,25.1
2016-05-25 01:09:00,0.0,1.90434,0.00035,405.173,0.030,0.4751,0.0039,140.000,45.000,31510.45115,1.91340,407.519,32.369,45.072,45.001,0.00,0.09,-272.78,-272.83,-6,535,-930,19.8,15.4,-7.3,19.5,15.9,-7.0,5.73,2.10,-11.0,25.1
2016-05-25 01:10:00,0.0,1.90398,0.00051,405.200,0.027,0.4730,0.0035,140.002,45.000,31515.91999,1.91297,407.536,32.373,45.072,45.000,0.00,0.09,-272.77,-272.84,-4,535,-930,19.8,15.4,-7.3,19.5,15.9,-7.0,5.73,1.72,-11.0,25.1
2016-05-25 01:11:00,0.0,1.90411,0.00035,405.142,0.031,0.4777,0.0039,139.998,45.000,31513.13328,1.91318,407.504,32.370,45.072,45.000,0.00,0.09,-272.78,-272.83,-5,535,-930,19.8,15.5,-7.2,19.5,16.1,-6.9,5.73,2.10,-11.0,25.1
2016-05-25 01:12:00,0.0,1.90424,0.00023,405.157,0.043,0.4760,0.0044,140.001,45.001,31515.40670,1.91328,407.509,32.374,45.072,45.000,0.00,0.09,-272.77,-272.83,-6,535,-930,19.8,15.4,-7.2,19.5,16.0,-7.0,5.73,1.84,-11.0,25.1
2016-05-25 01:13:00,0.0,1.90400,0.00033,405.126,0.039,0.4838,0.0027,140.000,45.000,31516.44364,1.91318,407.515,32.375,45.072,45.000,0.00,0.09,-272.78,-272.83,-4,535,-930,19.8,15.7,-7.0,19.6,16.2,-6.7,5.73,1.90,-10.9,25.1
2016-05-25 01:14:00,0.0,1.90434,0.00038,405.179,0.046,0.4759,0.0051,140.001,45.000,31515.95576,1.91339,407.532,32.378,45.072,45.000,0.00,0.09,-272.78,-272.84,-5,535,-930,19.8,15.4,-7.3,19.6,16.1,-6.8,5.73,2.06,-11.0,25.2
2016-05-25 01:15:00,0.0,1.90447,0.00039,405.206,0.034,0.4685,0.0024,140.002,45.000,31515.80901,1.91338,407.522,32.376,45.072,45.000,0.00,0.09,-272.76,-272.83,-6,535,-930,19.8,15.1,-7.5,19.6,15.8,-7.1,5.73,1.74,-10.9,25.2
2016-05-25 01:16:00,0.0,1.90432,0.00045,405.225,0.030,0.4699,0.0041,140.000,45.000,31515.37555,1.91325,407.546,32.386,45.072,45.000,0.00,0.09,-272.78,-272.83,-4,535,-930,19.8,15.2,-7.4,19.6,15.7,-7.1,5.73,2.12,-11.0,25.2
2016-05-25 01:17:00,0.0,1.90398,0.00039,405.184,0.029,0.4760,0.0031,140.002,45.000,31518.27936,1.91302,407.537,32.402,45.072,45.000,0.00,0.09,-272.77,-272.84,-5,535,-930,19.9,15.3,-7.2,19.6,15.9,-7.0,5.73,1.79,-11.0,25.2
2016-05-25 01:18:00,0.0,1.90397,0.00036,405.181,0.028,0.4741,0.0027,140.000,45.000,31518.72112,1.91298,407.523,32.432,45.071,45.000,0.00,0.09,-272.77,-272.83,-5,535,-930,19.8,15.3,-7.3,19.6,15.9,-7.0,5.73,1.98,-11.0,25.2
2016-05-25 01:19:00,0.0,1.90420,0.00035,405.235,0.029,0.4667,0.0037,139.999,45.000,31520.66541,1.91306,407.541,32.438,45.071,45.000,0.00,0.09,-272.77,-272.83,-4,535,-930,19.8,15.0,-7.5,19.6,15.8,-7.1,5.73,1.99,-10.9,25.2
2016-05-25 01:20:00,0.0,1.90414,0.00047,405.204,0.031,0.4741,0.0058,140.001,45.000,31520.90633,1.91315,407.546,32.438,45.071,45.000,0.00,0.09,-272.78,-272.82,-6,535,-930,19.9,15.3,-7.3,19.6,15.7,-7.1,5.73,1.78,-10.9,25.2
2016-05-25 01:21:00,0.0,1.90439,0.00040,405.210,0.029,0.4743,0.0036,140.001,45.000,31520.39216,1.91343,407.554,32.457,45.071,45.000,0.00,0.09,-272.79,-272.83,-5,535,-930,19.8,15.3,-7.3,19.6,15.9,-7.0,5.73,2.12,-10.9,25.2
2016-05-25 01:22:00,0.0,1.90414,0.00052,405.202,0.031,0.4682,0.0035,139.999,45.000,31523.18067,1.91301,407.516,32.452,45.071,45.000,0.00,0.09,-272.77,-272.83,-4,535,-930,19.9,15.0,-7.5,19.6,15.7,-7.1,5.73,1.74,-10.9,25.2
2016-05-25 01:23:00,0.0,1.90443,0.00027,405.247,0.029,0.4637,0.0031,139.999,45.000,31522.98298,1.91324,407.538,32.453,45.071,45.000,0.00,0.09,-272.78,-272.82,-6,535,-930,19.9,14.9,-7.6,19.7,15.5,-7.2,5.73,2.05,-10.9,25.2
2016-05-25 01:24:00,0.0,1.90432,0.00046,405.230,0.033,0.4659,0.0067,139.999,45.000,31523.89079,1.91318,407.531,32.474,45.071,45.000,0.00,0.09,-272.77,-272.83,-5,536,-930,19.9,15.0,-7.5,19.6,15.5,-7.3,5.73,1.89,-10.9,25.2
2016-05-25 01:25:00,0.0,1.90483,0.00044,405.270,0.027,0.4655,0.0023,139.998,45.000,31521.38627,1.91365,407.570,32.443,45.071,45.000,0.00,0.09,-272.78,-272.82,-5,535,-930,19.9,15.0,-7.5,19.7,15.6,-7.2,5.73,1.85,-10.9,25.3
2016-05-25 01:26:00,0.0,1.90466,0.00032,405.286,0.035,0.4681,0.0033,140.000,45.000,31523.31877,1.91357,407.598,32.440,45.072,45.000,0.00,0.09,-272.77,-272.84,-6,535,-930,19.9,15.0,-7.5,19.7,15.6,-7.2,5.73,2.09,-10.9,25.3
2016-05-25 01:27:00,0.0,1.90473,0.00039,405.284,0.024,0.4658,0.0030,140.000,45.000,31523.49377,1.91358,407.587,32.440,45.072,45.000,0.00,0.09,-272.77,-272.83,-4,536,-930,19.9,14.9,-7.6,19.7,15.6,-7.2,5.73,1.73,-10.9,25.3
2016-05-25 01:28:00,0.0,1.90478,0.00042,405.275,0.025,0.4640,0.0035,139.999,45.000,31523.35573,1.91360,407.567,32.442,45.072,45.001,0.00,0.09,-272.78,-272.83,-5,535,-930,19.9,14.9,-7.6,19.7,15.4,-7.3,5.73,2.11,-10.9,25.3
2016-05-25 01:29:00,0.0,1.90488,0.00038,405.241,0.039,0.4696,0.0022,140.001,45.000,31524.82000,1.91379,407.561,32.441,45.072,45.000,0.00,0.09,-272.76,-272.83,-6,535,-930,20.0,15.1,-7.4,19.7,15.6,-7.1,5.73,1.82,-10.9,25.3
2016-05-25 01:30:00,0.0,1.90533,0.00038,405.275,0.033,0.4698,0.0041,139.999,45.000,31524.49891,1.91425,407.598,32.438,45.072,45.001,0.00,0.09,-272.78,-272.83,-4,536,-930,19.9,15.0,-7.4,19.7,15.7,-7.1,5.73,1.93,-10.9,25.3
2016-05-25 01:31:00,0.0,1.90526,0.00029,405.309,0.038,0.4705,0.0030,140.000,45.000,31525.55101,1.91421,407.634,32.443,45.072,45.000,0.00,0.09,-272.77,-272.84,-6,536,-930,20.0,15.1,-7.4,19.7,15.6,-7.1,5.73,2.03,-10.9,25.3
2016-05-25 01:32:00,0.0,1.90515,0.00037,405.322,0.035,0.4682,0.0032,139.998,45.000,31526.06013,1.91406,407.636,32.442,45.072,45.000,0.00,0.09,-272.78,-272.82,-6,536,-930,20.0,15.0,-7.4,19.7,15.6,-7.1,5.73,1.75,-10.9,25.3
2016-05-25 01:33:00,0.0,1.90513,0.00043,405.293,0.034,0.4722,0.0053,140.000,45.000,31528.93949,1.91410,407.627,32.466,45.072,45.000,0.00,0.09,-272.77,-272.82,-4,535,-930,20.0,15.1,-7.4,19.7,15.7,-7.1,5.73,2.13,-10.9,25.3
2016-05-25 01:34:00,0.0,1.90547,0.00036,405.305,0.031,0.4692,0.0034,139.998,45.000,31527.20672,1.91438,407.625,32.486,45.072,45.000,0.00,0.09,-272.78,-272.84,-6,536,-930,20.0,15.0,-7.4,19.7,15.6,-7.1,5.73,1.75,-10.9,25.3
2016-05-25 01:35:00,0.0,1.90552,0.00042,405.305,0.036,0.4724,0.0023,139.999,45.000,31527.81335,1.91449,407.640,32.494,45.071,45.000,0.00,0.09,-272.77,-272.83,-5,536,-930,20.0,15.1,-7.4,19.7,15.7,-7.1,5.73,2.03,-10.9,25.3
2016-05-25 01:36:00,0.0,1.90556,0.00035,405.282,0.027,0.4727,0.0025,139.999,45.000,31527.71956,1.91458,407.618,32.498,45.071,45.000,0.00,0.09,-272.77,-272.82,-4,535,-930,20.0,15.1,-7.3,19.7,15.7,-7.1,5.73,1.93,-10.9,25.4
2016-05-25 01:37:00,0.0,1.90567,0.00034,405.280,0.029,0.4762,0.0022,139.999,45.000,31527.81175,1.91472,407.634,32.509,45.071,45.000,0.00,0.09,-272.78,-272.84,-6,536,-930,20.0,15.2,-7.3,19.7,15.8,-7.0,5.73,1.82,-10.9,25.4
2016-05-25 01:38:00,0.0,1.90584,0.00029,405.292,0.036,0.4713,0.0029,140.001,45.000,31529.86738,1.91479,407.622,32.522,45.071,44.999,0.00,0.09,-272.77,-272.84,-5,536,-930,20.0,15.0,-7.4,19.8,15.7,-7.0,5.73,2.10,-10.8,25.4
2016-05-25 01:39:00,0.0,1.90593,0.00027,405.272,0.043,0.4719,0.0068,139.998,45.000,31529.47077,1.91492,407.604,32.501,45.071,45.000,0.00,0.09,-272.77,-272.82,-5,536,-930,20.0,15.0,-7.4,19.8,15.7,-7.0,5.73,1.72,-10.8,25.4
2016-05-25 01:40:00,0.0,1.90605,0.00034,405.311,0.033,0.4693,0.0019,139.998,45.000,31529.69408,1.91496,407.631,32.502,45.071,45.000,0.00,0.09,-272.78,-272.83,-6,536,-930,20.0,14.9,-7.5,19.8,15.5,-7.2,5.73,2.10,-10.8,25.4
2016-05-25 01:41:00,0.0,1.90586,0.00029,405.285,0.023,0.4713,0.0023,140.000,45.000,31531.39660,1.91482,407.615,32.505,45.071,45.000,0.00,0.09,-272.77,-272.84,-5,536,-930,20.0,15.0,-7.4,19.8,15.6,-7.1,5.73,1.83,-10.9,25.4
2016-05-25 01:42:00,0.0,1.90608,0.00031,405.290,0.032,0.4743,0.0017,139.998,45.000,31529.81259,1.91511,407.633,32.550,45.071,45.000,0.00,0.09,-272.77,-272.83,-5,536,-930,20.0,15.1,-7.3,19.8,15.7,-7.0,5.73,1.93,-10.9,25.4
2016-05-25 01:43:00,0.0,1.90598,0.00037,405.291,0.045,0.4789,0.0028,140.000,45.000,31530.79976,1.91508,407.658,32.565,45.071,45.000,0.00,0.09,-272.77,-272.83,-6,536,-930,20.1,15.3,-7.2,19.8,15.8,-6.9,5.73,2.03,-10.8,25.4
2016-05-25 01:44:00,0.0,1.90603,0.00047,405.294,0.039,0.4784,0.0047,140.000,45.000,31530.22245,1.91512,407.660,32.563,45.071,45.000,0.00,0.09,-272.78,-272.84,-4,536,-930,20.1,15.2,-7.2,19.8,15.9,-6.8,5.73,1.75,-10.8,25.4
2016-05-25 01:45:00,0.0,1.90621,0.00038,405.329,0.027,0.4667,0.0053,139.998,45.000,31528.44155,1.91508,407.637,32.562,45.071,45.000,0.00,0.09,-272.78,-272.84,-6,536,-930,20.1,14.8,-7.5,19.8,15.6,-7.1,5.73,2.13,-10.8,25.4